Flag for Cuba Weather past 2 weeks in Camagüey, Cuba

Now
81 °F

Thundershowers. Partly sunny.


Feels Like: 83 °F
Forecast: N/A
Wind: 12 mph from East

Location: Camaguey Aeropuerto

Current Time: Sep 23, 2014 at 4:31:33 PM

Latest Report: Sep 23, 2014 at 3:50 PM


Visibility: 5 mi

Pressure: 29.95 "Hg

Humidity: 66%

Dew point: 68 °F

Location of CamagüeyLocation

Historic Weather in Camagüey — Graph

°F

Camagüey temperature yesterday

Maximum temperature yesterday: 91 °F (at 1:50 PM)
Minimum temperature yesterday: 75 °F (at 2:51 AM)
Average temperature yesterday: 80 °F

Past Weeks' High & Low Weather Summary

 TemperatureHumidityPressure
High93 °F (Sep 20, 2:51 PM)94% (Sep 8, 8:50 PM)30.12 "Hg (Sep 8, 8:50 PM)
Low70 °F (Sep 8, 11:50 PM)41% (Sep 18, 4:50 PM)29.89 "Hg (Sep 18, 4:50 PM)
Average79 °F76%30.00 "Hg
* Reported Sep 8 2:50 PM — Sep 23 2:50 PM, Camagüey, Weather by CustomWeather, © 2014

Note: Actual official high and low records may vary slightly from our data, if they occured in-between our weather recording intervals... More about our weather records

Advertising

Camagüey weather history for previous 24 hours

 ConditionsComfort  
Time TempWeatherWind HumidityBarometerVisibility
2:50 PM
Sep 23
84 °FPartly sunny.24 mph51%29.92 "Hg6 mi
1:50 PM90 °FScattered clouds.7 mph52%29.95 "Hg6 mi
12:50 PM88 °FScattered clouds.12 mph59%29.98 "Hg6 mi
11:50 AM88 °FScattered clouds.9 mph59%30.01 "Hg6 mi
10:50 AM84 °FPassing clouds.12 mph66%30.01 "Hg6 mi
9:50 AM82 °FPassing clouds.10 mph74%30.01 "Hg6 mi
8:50 AM81 °FPassing clouds.5 mph79%30.01 "Hg6 mi
7:50 AM75 °FPassing clouds.6 mph89%29.98 "Hg6 mi
6:50 AM73 °FPassing clouds.5 mph89%29.98 "Hg6 mi
5:50 AM73 °FPassing clouds.3 mph89%29.95 "Hg6 mi
4:50 AM75 °FPassing clouds.6 mph89%29.95 "Hg6 mi
3:50 AM73 °FClear.6 mph89%29.95 "Hg6 mi
2:50 AM73 °FClear.5 mph89%29.95 "Hg6 mi
1:50 AM73 °FPassing clouds.6 mph89%29.98 "Hg6 mi
12:50 AM73 °FPassing clouds.5 mph89%29.98 "Hg6 mi
11:50 PM
Sep 22
75 °FPassing clouds.6 mph83%29.98 "Hg6 mi
10:50 PM75 °FPassing clouds.3 mph89%30.01 "Hg6 mi
9:50 PM75 °FPassing clouds.2 mph89%30.01 "Hg6 mi
8:51 PM77 °FPassing clouds.3 mph89%29.98 "Hg6 mi
7:50 PM79 °FScattered clouds.6 mph84%29.98 "Hg6 mi
5:50 PM77 °FBroken clouds.3 mph83%29.95 "Hg6 mi
4:50 PM75 °FThunderstorms. Partly sunny.3 mph78%29.95 "Hg5 mi
Weather by CustomWeather, © 2014

See weather overviewHow to use our weather pages